Avoca, PA

4:34 PM EST on November 12, 2019 (GMT -0500)
Wilkes-Barre-Scranton International

Weather History for KAVP - October, 2019

Change the Weather History Date:

Monday, October 14, 2019

  Actual Average Record
Temperature  
Mean Temperature 57 °F 51 °F  
Max Temperature 68 °F 61 °F 84 °F (1954)
Min Temperature 45 °F 41 °F 29 °F (1991)
Degree Days  
Heating Degree Days 8 14  
Month to date heating degree days 108 161  
Since 1 July heating degree days 146 323  
Cooling Degree Days 0 0  
Month to date cooling degree days 16 0  
Year to date cooling degree days 846 576  
Growing Degree Days 6 (Base 50)    
Moisture  
Dew Point 44 °F    
Average Humidity 65    
Maximum Humidity 93    
Minimum Humidity 37    
Precipitation  
Precipitation 0.00 in 0.11 in 1.31 in (2011)
Month to date precipitation 1.66 1.62  
Year to date precipitation 40.53 30.72  
Sea Level Pressure  
Sea Level Pressure 29.99 in    
Wind  
Wind Speed 6 mph (West)    
Max Wind Speed 21 mph    
Max Gust Speed 29 mph    
Visibility 9 miles    
Events      
T = Trace of Precipitation, MM = Missing Value Source: NWS Daily Summary

Daily Weather History Graph

Daily Weather History Graph

Search for Another Location

Airport or City:

Astronomy

Oct. 14, 2019 Rise Set
Actual Time 7:13 AM EDT 6:23 PM EDT
Civil Twilight 6:45 AM EDT 6:51 PM EDT
Nautical Twilight 6:13 AM EDT 7:23 PM EDT
Astronomical Twilight 5:41 AM EDT 7:55 PM EDT
Moon 7:12 PM EDT (10/14) 7:42 AM EDT (10/14)
Length of Visible Light 12h 06m
Length of Day
11h 10m
Waxing Gibbous, 99% of the Moon is Illuminated
Oct 14
Waxing Gibbous
Oct 21
Last Quarter
Oct 27
New
Nov 4
First Quarter
Nov 12
Full

Hourly Weather History & Observations

Time (EDT) Temp. Dew Point Humidity Pressure Visibility Wind Dir Wind Speed Gust Speed Precip Events Conditions
12:54 AM 48.9 °F 45.0 °F 86% 29.98 in 10.0 mi Calm Calm - N/A   Clear
1:54 AM 46.0 °F 44.1 °F 93% 29.97 in 10.0 mi Calm Calm - N/A   Clear
2:54 AM 46.0 °F 44.1 °F 93% 29.94 in 9.0 mi Calm Calm - N/A   Clear
3:54 AM 46.0 °F 44.1 °F 93% 29.95 in 8.0 mi Calm Calm - N/A   Partly Cloudy
4:12 AM 50.0 °F 46.9 °F 89% 29.96 in 9.0 mi Calm Calm - N/A   Mostly Cloudy
4:38 AM 50.0 °F 46.9 °F 89% 29.95 in 9.0 mi Calm Calm - N/A   Overcast
4:54 AM 51.1 °F 48.9 °F 92% 29.96 in 9.0 mi NNW 4.6 mph - N/A   Overcast
5:14 AM 50.0 °F 46.9 °F 89% 29.97 in 10.0 mi Calm Calm - N/A   Overcast
5:54 AM 50.0 °F 46.9 °F 89% 29.97 in 10.0 mi Calm Calm - N/A   Overcast
6:52 AM 51.8 °F 48.2 °F 88% 29.97 in 9.0 mi Calm Calm - N/A   Overcast
6:54 AM 52.0 °F 48.0 °F 86% 29.97 in 9.0 mi Calm Calm - N/A   Overcast
7:37 AM 48.9 °F 46.9 °F 93% 29.98 in 7.0 mi Calm Calm - N/A   Scattered Clouds
7:54 AM 48.9 °F 46.9 °F 93% 29.98 in 6.0 mi Calm Calm - N/A   Clear
8:54 AM 53.1 °F 48.0 °F 83% 30.00 in 7.0 mi Calm Calm - N/A   Clear
9:54 AM 57.0 °F 50.0 °F 77% 30.00 in 7.0 mi West 4.6 mph - N/A   Clear
10:54 AM 61.0 °F 46.0 °F 58% 29.99 in 10.0 mi WSW 11.5 mph - N/A   Clear
11:54 AM 64.0 °F 44.1 °F 48% 29.97 in 10.0 mi SW 12.7 mph 18.4 mph N/A   Clear
1:54 PM 66.9 °F 41.0 °F 39% 29.94 in 10.0 mi SW 11.5 mph 19.6 mph N/A   Clear
2:54 PM 66.9 °F 39.9 °F 37% 29.93 in 10.0 mi WSW 17.3 mph - N/A   Partly Cloudy
3:54 PM 66.9 °F 42.1 °F 40% 29.93 in 10.0 mi WSW 11.5 mph - N/A   Partly Cloudy
4:54 PM 66.9 °F 42.1 °F 40% 29.93 in 10.0 mi West 12.7 mph 20.7 mph N/A   Clear
5:54 PM 64.0 °F 41.0 °F 43% 29.96 in 10.0 mi West 10.4 mph - N/A   Partly Cloudy
6:54 PM 60.1 °F 39.0 °F 46% 29.98 in 10.0 mi WSW 5.8 mph - N/A   Clear
7:54 PM 55.9 °F 39.0 °F 53% 30.01 in 10.0 mi SSW 5.8 mph - N/A   Clear
8:54 PM 53.1 °F 41.0 °F 64% 30.06 in 10.0 mi North 4.6 mph - N/A   Clear
9:54 PM 52.0 °F 41.0 °F 66% 30.09 in 10.0 mi ENE 4.6 mph - N/A   Clear
10:54 PM 50.0 °F 41.0 °F 71% 30.09 in 10.0 mi NE 5.8 mph - N/A   Clear
11:54 PM 46.9 °F 41.0 °F 80% 30.10 in 10.0 mi East 3.5 mph - N/A   Clear